[[{"header":{"parameterUnit":"m.s-1","parameterCategory":1,"la1":30.2991,"la2":30.254,"lo1":-89.0895,"lo2":-89.0444,"dy":0.0017,"dx":0.0017,"nx":28,"ny":28,"refTime":"2024-04-07T09:00:00:Z","depth":0,"parameterNumber":2,"parameterNumberName":"U-component_of_WINDS"},"data":[0,0,0,0,0,0,0,0,0,0,0,0,0,0,0,0,0,0,0,0,0,0,0,0,0,0,0,0,0,0,0,0,0,0,0,0,0,0,0,0,0,0,0,0,0,0,0,0,0,0,0,0,0,0,0,0,0,0,-4.2485,-4.2486,0,-4.2599,-4.2601,-4.2602,-4.262,-4.2619,-4.2617,-4.2617,-4.2733,-4.2737,-4.2741,0,0,0,0,0,0,0,0,0,0,0,0,0,-4.2281,-4.2284,-4.2484,-4.2486,-4.2487,-4.2599,-4.2601,-4.2602,-4.262,-4.2618,-4.2617,-4.2616,-4.2732,-4.2736,-4.2741,0,0,0,0,0,0,0,0,0,0,0,0,0,-4.238,-4.2286,-4.2484,-4.2509,-4.2513,-4.2599,-4.2601,-4.2603,-4.262,-4.2618,-4.2617,-4.2615,-4.273,-4.2736,-4.2742,-4.281,0,0,-4.2761,-4.2763,0,0,0,0,0,0,0,0,-4.2374,-4.2387,-4.2504,-4.2508,-4.2512,-4.2594,-4.2572,-4.2672,-4.262,-4.2579,-4.2616,-4.2615,-4.2688,-4.2697,-4.2722,-4.2816,-4.2821,-4.2761,-4.2765,-4.2767,-4.2769,0,0,0,0,0,0,0,-4.2367,-4.2382,-4.253,-4.2506,-4.2511,-4.2515,-4.2528,-4.2591,-4.2641,-4.2583,-4.2584,-4.2598,-4.2689,-4.2716,-4.2725,-4.2823,-4.2761,-4.2766,-4.277,-4.2772,-4.298,-4.2981,0,0,0,0,0,0,-4.2356,-4.2377,-4.2526,-4.2533,-4.2438,-4.252,-4.2534,-4.2569,-4.264,-4.2649,-4.2599,-4.2598,-4.2707,-4.2718,-4.2729,-4.2813,-4.2767,-4.2773,-4.2777,-4.2978,-4.298,-4.2982,0,0,0,0,0,0,-4.2351,-4.2369,-4.2522,-4.2456,-4.2475,-4.2526,-4.2564,-4.2572,-4.2599,-4.2652,-4.2661,-4.2617,-4.2706,-4.2721,-4.279,-4.2818,-4.2776,-4.2781,-4.2976,-4.2978,-4.2981,-4.2983,0,0,0,0,0,0,-4.2345,-4.2367,-4.2393,-4.2456,-4.2479,-4.258,-4.2566,-4.2575,-4.2609,-4.2609,-4.2672,-4.268,-4.2706,-4.2781,-4.2796,-4.2825,-4.2786,-4.2973,-4.2977,-4.298,-4.298,-4.2985,-4.2989,0,0,0,0,0,-4.2338,-4.2389,-4.2394,-4.2412,-4.2512,-4.2582,-4.2595,-4.2623,-4.2611,-4.2638,-4.2673,-4.2678,-4.2813,-4.2788,-4.2805,-4.2837,-4.2972,-4.2976,-4.298,-4.2978,-4.2984,-4.2989,0,0,0,0,0,0,-4.2326,-4.2397,-4.2404,-4.2477,-4.2523,-4.2585,-4.2618,-4.2629,-4.2679,-4.2677,-4.271,-4.2724,-4.2792,-4.2822,-4.2793,-4.2907,-4.2892,-4.2899,-4.2884,-4.289,-4.2895,-4.2884,-4.2791,0,0,0,0,0,-4.2333,-4.2383,-4.2443,-4.2501,-4.2524,-4.2568,-4.2599,-4.2617,-4.2667,-4.2686,-4.2726,-4.2774,-4.2827,-4.2861,-4.2913,-4.2987,-4.3,-4.3017,-4.3021,-4.3025,-4.303,-4.3071,-4.3079,-4.2996,-4.2996,-4.2996,0,0,-4.2345,-4.239,-4.2419,-4.2499,-4.2538,-4.2589,-4.2584,-4.2638,-4.2677,-4.2694,-4.2762,-4.2794,-4.285,-4.2921,-4.2955,-4.2948,-4.3057,-4.303,-4.3032,-4.3036,-4.3076,-4.3084,-4.3091,-4.2999,-4.2998,-4.2998,0,0,-4.2393,-4.2433,-4.2485,-4.2525,-4.2583,-4.2613,-4.2626,-4.2687,-4.2709,-4.2778,-4.2792,-4.284,-4.2931,-4.297,-4.3001,-4.3069,-4.3076,-4.3086,-4.3107,-4.3147,-4.3154,-4.316,-4.3182,-4.319,-4.3092,-4.3092,-4.3092,0,-4.24,-4.2478,-4.2511,-4.2566,-4.26,-4.2621,-4.2675,-4.2711,-4.2784,-4.2807,-4.28,-4.2916,-4.2955,-4.3036,-4.3053,-4.3079,-4.3094,-4.3076,-4.315,-4.3157,-4.3163,-4.3184,-4.3193,-4.3092,-4.3092,-4.3092,-4.3092,0,-4.2484,-4.2539,-4.2575,-4.2645,-4.2684,-4.2738,-4.2779,-4.2816,-4.2832,-4.2863,-4.2934,-4.2982,-4.3044,-4.3066,-4.3082,-4.3151,-4.3145,-4.3144,-4.3127,-4.3171,-4.3192,-4.32,-4.3093,-4.3093,-4.3093,-4.3093,0,0,-4.2523,-4.2614,-4.2626,-4.2658,-4.2727,-4.2769,-4.2826,-4.2888,-4.2918,-4.2969,-4.3016,-4.3094,-4.3095,-4.3131,-4.3152,-4.3188,-4.3237,-4.3183,-4.3185,-4.3189,-4.3315,-4.3312,-4.3321,-4.3244,-4.3246,-4.3247,-4.3309,0,-4.2577,-4.2677,-4.271,-4.2792,-4.2843,-4.2866,-4.2914,-4.2962,-4.2993,-4.3041,-4.3076,-4.3131,-4.3128,-4.315,-4.3186,-4.3223,-4.3262,-4.322,-4.3287,-4.3289,-4.3268,-4.3333,-4.333,-4.3386,-4.3318,-4.3319,-4.332,0,-4.2653,-4.2705,-4.2793,-4.2856,-4.2879,-4.2922,-4.2982,-4.3029,-4.3084,-4.3104,-4.3147,-4.3166,-4.3226,-4.321,-4.3293,-4.3264,-4.3294,-4.3317,-4.332,-4.3324,-4.3304,-4.3336,-4.3404,-4.3411,-4.3334,-4.3333,-4.3332,0,-4.267,-4.2763,-4.2828,-4.2855,-4.2931,-4.2961,-4.2994,-4.3048,-4.3084,-4.3138,-4.3161,-4.3221,-4.3253,-4.3299,-4.3335,-4.332,-4.3415,-4.3402,-4.3432,-4.3431,-4.3447,-4.3445,-4.3518,-4.3473,-4.3472,-4.3472,-4.3472,0,-4.2725,-4.2777,-4.2836,-4.2876,-4.2936,-4.2974,-4.3033,-4.3067,-4.3116,-4.3163,-4.3187,-4.3231,-4.3277,-4.3327,-4.3356,-4.342,-4.3435,-4.3452,-4.3458,-4.3448,-4.3445,-4.3465,-4.3461,-4.3475,-4.3474,-4.3474,-4.3473,0,-4.2751,-4.2794,-4.2865,-4.2933,-4.2951,-4.2992,-4.305,-4.309,-4.3124,-4.3183,-4.3199,-4.3252,-4.3313,-4.3354,-4.3431,-4.3451,-4.352,-4.3527,-4.35,-4.3503,-4.353,-4.3526,-4.3616,-4.3629,-4.3577,-4.3577,-4.3578,0,-4.2782,-4.2823,-4.2895,-4.2929,-4.2962,-4.3016,-4.3053,-4.3094,-4.3132,-4.3199,-4.3231,-4.3293,-4.3345,-4.344,-4.3486,-4.3546,-4.3553,-4.3581,-4.3562,-4.355,-4.355,-4.3546,-4.355,-4.3582,-4.3582,-4.3583,-4.3583,0,-4.2831,-4.2851,-4.2903,-4.2964,-4.3008,-4.3057,-4.3107,-4.3134,-4.3184,-4.3225,-4.3287,-4.3328,-4.3408,-4.3469,-4.3534,-4.3569,-4.3584,-4.3589,-4.3599,-4.3587,-4.3569,-4.3577,-4.3505,-4.3586,-4.3586,-4.3585,-4.3585,-4.3585,-4.2859,-4.2897,-4.2954,-4.3012,-4.3055,-4.3101,-4.3142,-4.3182,-4.3235,-4.3303,-4.3325,-4.3389,-4.3446,-4.3535,-4.3571,-4.3623,-4.362,-4.3635,-4.3638,-4.364,-4.3639,-4.3564,-4.3635,-4.3635,-4.3635,-4.3635,-4.3635,0,-4.2908,-4.2946,-4.3,-4.3069,-4.3115,-4.3129,-4.3185,-4.3223,-4.3279,-4.3331,-4.3382,-4.3454,-4.3515,-4.3567,-4.363,-4.3661,-4.367,-4.3676,-4.3672,-4.368,-4.3638,-4.3622,-4.3668,-4.3668,-4.3668,-4.3668,-4.3668,-4.3668,-4.2938,-4.3002,-4.3029,-4.3115,-4.3154,-4.3217,-4.3248,-4.3292,-4.3333,-4.3413,-4.3464,-4.3498,-4.355,-4.3618,-4.3674,-4.3688,-4.3709,-4.3713,-4.3728,-4.3687,-4.3683,-4.3679,-4.3664,-4.3718,-4.3718,-4.3765,-4.3766,-4.3766]},{"header":{"parameterUnit":"m.s-1","parameterCategory":1,"la1":30.2991,"la2":30.254,"lo1":-89.0895,"lo2":-89.0444,"dy":0.0017,"dx":0.0017,"nx":28,"ny":28,"refTime":"2024-04-07T09:00:00:Z","depth":0,"parameterNumber":3,"parameterNumberName":"V-component_of_WINDS"},"data":[0,0,0,0,0,0,0,0,0,0,0,0,0,0,0,0,0,0,0,0,0,0,0,0,0,0,0,0,0,0,0,0,0,0,0,0,0,0,0,0,0,0,0,0,0,0,0,0,0,0,0,0,0,0,0,0,0,0,3.3526,3.3527,0,3.3613,3.3614,3.3615,3.3698,3.3699,3.37,3.3701,3.3788,3.3789,3.379,0,0,0,0,0,0,0,0,0,0,0,0,0,3.343,3.3431,3.3526,3.3527,3.3528,3.3613,3.3614,3.3616,3.3698,3.3699,3.3701,3.3702,3.3787,3.3789,3.3791,0,0,0,0,0,0,0,0,0,0,0,0,0,3.349,3.3431,3.3526,3.358,3.3585,3.3613,3.3615,3.3616,3.3698,3.3699,3.3701,3.3702,3.3787,3.3789,3.3791,3.3771,0,0,3.3797,3.3798,0,0,0,0,0,0,0,0,3.3486,3.3493,3.3571,3.3576,3.3582,3.3647,3.3612,3.3668,3.3697,3.3655,3.3701,3.3703,3.3739,3.3745,3.3758,3.3775,3.3779,3.3797,3.3798,3.3799,3.38,0,0,0,0,0,0,0,3.3482,3.349,3.3561,3.3572,3.3579,3.3599,3.3609,3.3623,3.3687,3.3659,3.3665,3.3674,3.3743,3.3756,3.3761,3.378,3.3797,3.3799,3.38,3.3801,3.3789,3.3787,0,0,0,0,0,0,3.347,3.3486,3.3558,3.3563,3.3537,3.36,3.3611,3.3624,3.3687,3.3698,3.3673,3.3678,3.3752,3.3758,3.3764,3.3748,3.3799,3.3801,3.3802,3.379,3.3788,3.3787,0,0,0,0,0,0,3.3467,3.3475,3.3554,3.3526,3.3538,3.36,3.3614,3.3625,3.3639,3.3698,3.371,3.3675,3.3753,3.3761,3.377,3.3752,3.3802,3.3804,3.3792,3.379,3.3788,3.3712,0,0,0,0,0,0,3.3464,3.3474,3.3467,3.3525,3.3539,3.3558,3.3613,3.3626,3.3642,3.3649,3.3703,3.3713,3.3755,3.3766,3.3772,3.3755,3.3805,3.3794,3.3791,3.3788,3.3717,3.3708,3.37,0,0,0,0,0,3.346,3.3441,3.3466,3.3475,3.3532,3.3557,3.3565,3.3615,3.364,3.3634,3.3673,3.3711,3.3753,3.3767,3.3773,3.3757,3.3795,3.3792,3.3789,3.3721,3.371,3.3701,0,0,0,0,0,0,3.3378,3.345,3.3479,3.3478,3.3511,3.3571,3.3565,3.3601,3.3627,3.3632,3.3692,3.3704,3.3705,3.3732,3.3746,3.3743,3.3779,3.3777,3.3725,3.3716,3.3707,3.3701,3.3807,0,0,0,0,0,3.336,3.3375,3.3437,3.343,3.3446,3.3502,3.3515,3.3551,3.3587,3.3601,3.364,3.3673,3.3694,3.3706,3.3728,3.3721,3.3735,3.3713,3.3705,3.3698,3.3695,3.3696,3.3687,3.3776,3.3776,3.3776,0,0,3.3322,3.3364,3.3369,3.3415,3.3445,3.3459,3.3513,3.3525,3.3537,3.3603,3.3614,3.3643,3.3684,3.3686,3.3688,3.3708,3.3674,3.3694,3.3688,3.3689,3.3691,3.3683,3.3675,3.3773,3.3774,3.3774,0,0,3.3262,3.3294,3.3293,3.3322,3.3367,3.3406,3.3405,3.3461,3.3484,3.3496,3.3546,3.356,3.3594,3.3622,3.3641,3.3593,3.363,3.3598,3.3555,3.3554,3.3547,3.3541,3.3526,3.3519,3.3595,3.3595,3.3595,0,3.3209,3.3233,3.3287,3.3298,3.3317,3.3379,3.3379,3.3404,3.3454,3.3465,3.3487,3.3533,3.3565,3.3574,3.3563,3.3575,3.3577,3.3592,3.3544,3.3539,3.3534,3.352,3.3513,3.3591,3.3592,3.3592,3.3592,0,3.3167,3.3183,3.3177,3.3225,3.3243,3.3248,3.3303,3.3315,3.335,3.3386,3.3398,3.3439,3.3472,3.3476,3.3509,3.3491,3.3502,3.3533,3.3571,3.3521,3.3508,3.3503,3.3585,3.3587,3.3588,3.3589,0,0,3.3055,3.3136,3.3132,3.3156,3.3211,3.3225,3.3232,3.3266,3.3276,3.3308,3.3317,3.3345,3.3375,3.3396,3.3433,3.3432,3.3393,3.3463,3.3465,3.345,3.3377,3.3355,3.3347,3.3418,3.3417,3.3417,3.3375,0,3.3005,3.3024,3.3074,3.3078,3.3094,3.3154,3.3161,3.3196,3.323,3.3249,3.3286,3.3306,3.3343,3.3356,3.3358,3.3397,3.338,3.3401,3.3427,3.3427,3.3416,3.3341,3.3316,3.3274,3.337,3.3369,3.3368,0,3.2948,3.2979,3.2984,3.3041,3.3049,3.3055,3.3091,3.3108,3.3148,3.3173,3.3198,3.3239,3.3252,3.3287,3.3305,3.3318,3.3332,3.3353,3.3353,3.3357,3.3395,3.3344,3.3262,3.3256,3.3361,3.3362,3.3362,0,3.2868,3.291,3.292,3.2938,3.3004,3.3007,3.3034,3.3077,3.3094,3.3125,3.3137,3.3168,3.3185,3.3208,3.3258,3.3278,3.327,3.3309,3.3292,3.3291,3.3288,3.3287,3.3207,3.3295,3.3295,3.3295,3.3295,0,3.2807,3.2808,3.2885,3.2891,3.2895,3.2953,3.2955,3.2988,3.3025,3.3039,3.3092,3.3103,3.3167,3.3186,3.3224,3.3234,3.3241,3.3261,3.3272,3.3257,3.3255,3.3267,3.3272,3.3293,3.3294,3.3294,3.3294,0,3.2718,3.277,3.2785,3.2846,3.2862,3.2862,3.2915,3.2923,3.2961,3.2977,3.2984,3.3044,3.3069,3.312,3.3158,3.3184,3.3186,3.3203,3.3172,3.3179,3.3159,3.316,3.3085,3.3078,3.3168,3.3167,3.3167,0,3.2676,3.2679,3.2742,3.2756,3.2781,3.2802,3.2821,3.2878,3.2895,3.2943,3.2946,3.2975,3.3002,3.3039,3.3085,3.3115,3.3135,3.3106,3.314,3.3126,3.3136,3.3136,3.3137,3.3099,3.3097,3.3096,3.3096,0,3.2597,3.2623,3.2648,3.2683,3.2704,3.2734,3.2766,3.2774,3.2839,3.2856,3.2883,3.2904,3.2944,3.2973,3.3011,3.3039,3.3078,3.3085,3.3083,3.3068,3.3051,3.3061,3.3153,3.3086,3.3087,3.3088,3.3088,3.3089,3.2532,3.2538,3.2583,3.261,3.2641,3.2671,3.2682,3.2722,3.2746,3.2785,3.2817,3.2841,3.2884,3.2938,3.2964,3.2984,3.3003,3.3,3.2999,3.2997,3.2992,3.3047,3.2991,3.2991,3.2992,3.2992,3.2992,0,3.2456,3.2489,3.2513,3.2558,3.2579,3.2616,3.2654,3.2669,3.2691,3.2727,3.2753,3.2785,3.2814,3.2863,3.2896,3.2903,3.2922,3.2909,3.291,3.2916,3.2972,3.2972,3.2894,3.2894,3.2894,3.2894,3.2894,3.2894,3.242,3.2432,3.2464,3.2493,3.2526,3.2551,3.257,3.2598,3.2628,3.2661,3.2686,3.2718,3.276,3.2797,3.2825,3.2839,3.2849,3.2831,3.2851,3.2902,3.2912,3.292,3.292,3.2833,3.2833,3.2793,3.2793,3.2792]}]]